TimeEDT,TemperatureF,Dew PointF,Humidity,Sea Level PressureIn,VisibilityMPH,Wind Direction,Wind SpeedMPH,Gust SpeedMPH,PrecipitationIn,Events,Conditions,WindDirDegrees,DateUTC
12:16 AM,66.2,64.4,94,30.12,6.0,ENE,10.4,-,0.00,Rain,Light Rain,70,2013-07-13 04:16:00
12:39 AM,66.2,66.2,100,30.13,9.0,ENE,12.7,-,0.00,Rain,Light Rain,70,2013-07-13 04:39:00
12:53 AM,66.9,64.9,93,30.14,10.0,ENE,13.8,19.6,0.00,Rain,Light Rain,70,2013-07-13 04:53:00
1:53 AM,66.0,64.0,93,30.15,5.0,ENE,10.4,-,0.01,Rain,Light Rain,70,2013-07-13 05:53:00
2:53 AM,66.0,64.9,96,30.14,4.0,ENE,8.1,-,0.01,Rain,Light Rain,70,2013-07-13 06:53:00
3:53 AM,66.0,64.9,96,30.15,4.0,ENE,9.2,-,0.00,,Overcast,60,2013-07-13 07:53:00
4:53 AM,66.0,64.9,96,30.17,3.0,ENE,6.9,-,0.02,Rain,Light Rain,70,2013-07-13 08:53:00
5:53 AM,66.9,66.0,97,30.18,5.0,ENE,5.8,-,0.01,,Overcast,60,2013-07-13 09:53:00
6:25 AM,66.2,66.2,100,30.18,3.0,Variable,3.5,-,N/A,,Overcast,0,2013-07-13 10:25:00
6:53 AM,66.9,66.0,97,30.21,3.0,ENE,4.6,-,N/A,,Overcast,70,2013-07-13 10:53:00
7:00 AM,66.2,66.2,100,30.19,2.5,ENE,6.9,-,N/A,,Overcast,70,2013-07-13 11:00:00
7:53 AM,68.0,66.0,93,30.22,2.5,ENE,8.1,-,0.00,Rain,Light Rain,60,2013-07-13 11:53:00
8:16 AM,68.0,66.2,94,30.22,1.8,ENE,6.9,-,0.00,Rain,Light Rain,60,2013-07-13 12:16:00
8:25 AM,68.0,66.2,94,30.22,3.0,ENE,9.2,-,0.00,Rain,Light Rain,60,2013-07-13 12:25:00
8:53 AM,69.1,66.9,93,30.25,7.0,ENE,6.9,-,0.00,,Overcast,60,2013-07-13 12:53:00
9:53 AM,70.0,68.0,93,30.25,6.0,East,5.8,-,0.00,,Overcast,80,2013-07-13 13:53:00
10:12 AM,69.8,68.0,94,30.24,7.0,East,8.1,-,N/A,,Overcast,80,2013-07-13 14:12:00
10:53 AM,70.0,69.1,97,30.27,5.0,ENE,6.9,-,N/A,,Overcast,70,2013-07-13 14:53:00
11:53 AM,73.0,70.0,90,30.26,6.0,ENE,5.8,-,N/A,,Overcast,60,2013-07-13 15:53:00
12:53 PM,75.9,71.1,85,30.27,5.0,East,5.8,-,0.00,Rain,Light Rain,80,2013-07-13 16:53:00
1:53 PM,77.0,72.0,84,30.26,8.0,Calm,Calm,-,0.00,,Overcast,0,2013-07-13 17:53:00
2:07 PM,75.2,71.6,89,30.24,8.0,North,4.6,-,N/A,,Overcast,10,2013-07-13 18:07:00
2:53 PM,77.0,72.0,84,30.26,7.0,NE,3.5,-,0.00,Rain,Light Rain,40,2013-07-13 18:53:00
3:45 PM,77.0,71.6,83,30.24,8.0,East,6.9,-,0.00,,Overcast,90,2013-07-13 19:45:00
3:53 PM,77.0,73.0,88,30.26,8.0,East,6.9,-,0.00,,Overcast,90,2013-07-13 19:53:00
4:28 PM,77.0,73.4,89,30.24,6.0,East,5.8,-,0.00,Rain,Light Rain,80,2013-07-13 20:28:00
4:53 PM,78.1,73.0,84,30.26,7.0,ENE,3.5,-,0.00,Rain,Light Rain,60,2013-07-13 20:53:00
5:49 PM,78.8,73.4,83,30.25,6.0,East,3.5,-,0.01,,Overcast,90,2013-07-13 21:49:00
5:53 PM,78.1,73.9,87,30.26,6.0,East,4.6,-,0.01,,Overcast,90,2013-07-13 21:53:00
6:01 PM,78.8,73.4,83,30.25,7.0,East,5.8,-,N/A,,Overcast,80,2013-07-13 22:01:00
6:11 PM,78.8,73.4,83,30.26,7.0,ENE,3.5,-,N/A,,Overcast,70,2013-07-13 22:11:00
6:53 PM,78.1,73.0,84,30.28,9.0,East,5.8,-,N/A,,Overcast,80,2013-07-13 22:53:00
7:53 PM,77.0,73.0,88,30.28,10.0,East,6.9,-,0.00,Rain,Light Rain,100,2013-07-13 23:53:00
8:53 PM,75.9,72.0,87,30.29,10.0,Calm,Calm,-,0.00,,Mostly Cloudy,0,2013-07-14 00:53:00
9:53 PM,75.0,72.0,90,30.30,10.0,Calm,Calm,-,N/A,,Overcast,0,2013-07-14 01:53:00
10:05 PM,75.2,71.6,89,30.29,10.0,Calm,Calm,-,N/A,,Overcast,0,2013-07-14 02:05:00
10:53 PM,75.0,72.0,90,30.31,10.0,Calm,Calm,-,N/A,,Mostly Cloudy,0,2013-07-14 02:53:00
11:27 PM,75.2,73.4,94,30.29,8.0,Calm,Calm,-,0.00,Rain,Light Rain,0,2013-07-14 03:27:00
11:53 PM,73.9,73.0,97,30.30,7.0,Calm,Calm,-,0.00,,Scattered Clouds,0,2013-07-14 03:53:00